Theta_e
337 345 350 352 352 351 351 353 353 353 353 352 352 351 351 351 351 351 353 353 353 352 350 347 346 346 345 345 345 345 344 343 341 343 343 345 346 345 344 343 343 341 344
339 348 347 351 351 352 353 353 352 352 352 351 350 350 350 350 350 352 353 353 352 351 350 347 346 345 346 346 345 343 341 339 339 340 341 342 346 345 344 342 343 341 342
342 348 348 348 351 352 352 352 351 352 352 351 349 349 350 349 351 350 351 351 349 350 349 348 347 347 346 343 341 339 337 337 337 336 338 342 344 344 343 342 342 342 342
344 347 347 344 349 351 351 351 351 351 351 350 350 349 349 349 351 350 349 348 348 348 348 348 347 345 341 338 335 332 330 335 336 336 340 341 342 343 342 339 339 338 338
343 346 345 344 349 351 350 350 349 350 350 351 349 348 349 349 349 348 347 347 347 347 347 345 342 338 334 331 329 326 330 334 331 335 340 341 339 339 339 336 333 331 330
344 344 342 344 349 350 349 349 349 349 349 350 349 349 348 347 347 347 345 344 344 342 341 339 334 330 328 327 325 325 328 326 325 328 332 335 335 336 335 332 330 328 328
342 343 344 343 347 348 348 348 348 348 348 348 347 347 346 345 344 342 340 338 338 337 335 332 329 327 325 324 322 322 322 321 320 323 326 329 331 332 331 329 327 326 326
341 343 344 337 341 344 346 346 346 346 346 346 346 346 344 342 341 338 338 337 335 333 330 328 326 324 323 322 321 320 318 316 317 318 321 324 327 327 327 326 326 326 326
342 343 344 344 340 335 338 340 342 343 343 343 342 341 339 337 338 337 337 333 330 328 326 325 324 322 320 319 319 317 316 314 314 316 317 320 325 326 326 325 325 325 324
339 341 341 342 342 342 342 332 334 336 338 337 335 332 331 331 331 331 328 328 326 325 323 323 320 319 318 316 314 312 311 311 312 314 317 319 323 325 325 324 324 324 325
332 335 337 339 339 339 340 332 331 330 331 329 328 324 323 323 322 322 322 324 323 321 319 317 315 314 313 312 311 309 307 308 310 313 316 322 323 324 324 324 325 324 324
329 333 334 333 333 334 334 334 336 333 333 330 329 324 320 319 318 317 316 319 319 318 316 314 312 308 304 304 305 305 305 306 308 312 316 322 323 324 324 325 322 322 323
327 331 333 331 332 331 331 331 332 331 329 327 324 322 316 314 313 312 309 308 306 304 304 304 303 303 303 303 303 304 304 305 309 313 317 321 322 325 323 322 322 322 321
324 328 331 332 331 329 330 330 329 328 326 324 323 317 316 311 308 306 305 304 303 303 302 303 302 302 302 302 302 302 303 308 310 312 314 316 320 321 323 323 323 320 322
321 327 328 329 329 328 328 330 329 328 325 325 321 316 313 310 308 305 303 303 302 301 301 302 302 301 301 301 302 302 305 307 308 308 311 312 316 318 319 321 319 322 320
306 322 327 326 330 329 329 329 329 326 325 322 319 317 314 312 309 306 303 302 301 301 300 301 301 300 300 302 301 303 304 304 303 305 306 308 311 313 316 318 319 319 320
296 306 324 327 328 327 328 327 325 323 321 319 316 314 311 309 308 305 303 301 300 301 300 300 299 299 299 300 302 302 301 301 300 300 301 302 305 308 311 314 314 315 316
296 303 313 328 326 327 327 325 322 319 319 317 316 313 312 310 307 303 302 301 301 299 299 299 299 297 298 299 301 300 299 299 298 298 299 299 299 300 304 306 309 311 312
295 300 309 324 325 326 324 321 319 318 316 315 314 312 310 310 306 304 302 301 300 299 298 297 297 298 298 299 299 298 297 297 297 297 297 296 296 296 296 299 301 304 307
294 296 303 321 323 323 319 317 316 315 314 314 313 311 309 306 305 303 301 299 299 296 297 297 297 296 299 299 297 296 296 296 297 296 296 295 295 295 295 295 295 296 301
292 294 296 302 320 319 315 312 311 310 310 310 311 309 307 307 307 304 302 300 298 296 296 295 296 297 297 299 297 296 295 295 295 295 295 295 294 294 294 294 294 294 294
290 291 294 297 303 318 316 313 312 310 309 309 310 309 307 305 304 302 300 298 296 296 295 296 296 295 296 296 296 295 292 294 294 293 294 294 293 294 293 293 293 293 293
289 290 292 298 307 316 310 308 306 306 305 304 304 303 303 303 301 300 299 297 296 296 295 295 295 295 295 295 294 296 292 292 292 293 291 292 292 293 293 293 292 292 292
288 291 292 295 299 306 309 308 307 307 305 304 303 301 301 302 301 299 298 297 296 295 294 295 294 295 294 294 294 293 293 294 292 289 291 290 291 291 292 292 292 292 292
288 289 291 293 293 296 303 306 305 304 303 303 301 300 300 300 300 299 298 297 295 294 294 294 293 294 294 294 293 292 291 291 291 292 288 288 289 290 291 291 291 292 291
287 288 290 291 291 292 294 297 301 303 301 300 299 299 298 299 299 298 298 297 296 295 293 293 293 293 293 293 293 292 292 292 290 290 289 287 288 289 290 291 291 292 291
Wind_Speed
3 7 10 12 12 12 11 11 12 11 10 10 10 12 12 13 12 11 10 10 10 12 14 14 14 14 14 13 12 13 12 11 11 9 8 9 12 14 14 14 13 13 16
8 8 9 12 11 11 10 11 11 11 11 11 11 12 12 12 12 12 10 10 11 12 15 15 15 14 14 13 12 12 12 11 11 11 8 9 9 14 15 15 14 13 14
10 9 9 12 10 11 9 11 12 11 11 12 11 11 12 12 12 12 10 9 10 12 14 15 14 14 15 14 12 12 12 11 12 11 8 7 9 13 15 15 16 16 17
11 9 8 11 10 11 10 10 11 12 12 11 11 10 11 11 12 12 11 9 10 12 14 15 17 16 15 13 13 12 12 12 12 10 7 8 9 16 18 16 16 16 15
6 9 7 10 12 11 10 10 12 13 12 12 11 12 12 12 12 14 14 13 14 16 17 17 17 16 13 13 13 13 13 13 12 10 10 10 10 14 15 15 13 14 14
8 6 7 10 13 12 11 10 11 12 13 12 12 13 13 16 15 14 16 14 14 17 16 16 15 14 13 14 13 14 14 13 11 11 10 11 11 13 14 13 14 14 14
8 6 6 6 11 12 11 11 11 12 13 13 12 14 15 17 15 17 15 15 15 15 14 14 14 14 15 15 14 14 14 14 10 10 10 10 11 14 13 13 13 14 14
8 7 7 6 9 10 11 12 12 12 12 13 15 15 17 15 14 15 15 15 15 14 14 15 15 15 15 15 15 15 15 13 9 10 10 9 11 13 13 13 13 14 14
7 7 6 7 8 8 8 10 12 11 13 15 16 15 12 10 11 13 14 15 14 14 14 14 15 15 15 15 15 15 15 14 10 7 8 7 10 12 13 13 13 13 13
5 5 8 7 6 7 6 7 9 11 12 16 14 13 12 13 14 13 10 12 15 15 15 15 15 15 15 15 15 14 13 13 9 8 7 6 10 12 12 12 12 13 15
4 7 6 7 8 8 6 6 9 12 15 16 16 14 8 6 9 11 10 11 15 15 15 15 14 14 15 15 15 14 11 6 7 5 5 7 10 11 12 13 14 14 14
5 6 3 0 3 4 4 5 7 8 7 8 10 8 6 7 7 9 11 13 13 14 15 15 14 14 10 6 6 9 5 7 6 5 5 6 10 12 13 14 12 13 15
4 3 3 6 4 5 2 3 1 3 4 5 10 9 7 6 5 5 5 5 5 7 5 7 7 6 8 6 5 6 7 6 4 4 7 9 12 14 13 12 12 13 14
5 4 4 6 10 10 6 4 1 1 2 5 6 10 7 4 5 4 4 5 5 3 6 6 5 7 8 8 8 8 7 6 5 5 10 13 13 13 12 13 12 12 16
8 7 5 7 4 2 5 7 7 5 2 5 7 7 6 5 5 5 5 4 4 5 4 5 6 6 7 8 7 8 8 8 8 6 6 14 15 13 12 12 11 14 14
12 10 4 7 6 7 6 4 3 6 7 5 4 6 9 7 5 6 5 5 4 5 5 4 5 7 6 7 8 8 8 7 9 9 7 8 15 12 12 13 13 13 15
11 13 8 6 6 6 6 4 2 3 6 6 5 7 8 7 6 6 6 5 4 4 9 5 5 7 7 6 9 7 8 8 8 9 7 6 8 15 14 14 14 13 14
11 11 10 5 5 5 5 4 3 4 4 4 6 6 5 5 6 5 5 6 5 4 5 4 4 6 6 6 6 6 7 7 8 9 8 7 7 7 10 14 13 14 14
13 13 7 5 4 4 4 4 5 5 4 4 5 7 8 5 6 4 4 4 4 6 5 4 3 3 6 6 6 6 6 6 7 7 9 9 10 8 6 12 15 15 14
13 13 11 2 3 5 5 4 4 3 4 3 3 6 10 7 5 7 2 5 2 4 5 4 5 4 4 7 7 6 6 5 5 6 7 7 8 8 8 8 7 8 15
14 15 13 10 2 5 2 3 2 3 2 3 3 5 10 8 7 6 1 4 4 4 5 6 5 7 4 6 5 5 5 5 5 5 5 6 7 7 8 8 6 5 6
15 15 14 12 8 2 3 2 2 3 3 3 4 4 6 7 8 5 5 2 4 5 6 6 5 3 2 3 2 3 3 2 3 3 4 5 6 5 7 8 8 8 6
15 15 15 14 7 2 5 5 4 4 3 3 3 3 3 7 6 6 2 4 3 3 4 5 5 5 4 4 1 1 3 2 3 1 4 3 4 5 5 6 8 8 7
15 13 14 15 13 10 6 3 2 2 2 2 3 5 5 6 7 7 5 5 2 1 4 4 4 3 4 5 2 1 1 2 3 3 1 3 3 4 5 4 6 7 7
13 12 12 13 14 13 10 6 3 3 3 2 4 7 6 4 5 6 6 6 4 2 3 5 4 4 3 3 3 2 1 1 1 2 3 3 1 2 3 3 3 4 6
12 13 12 13 13 14 12 11 8 4 3 3 4 5 4 4 4 5 7 5 6 6 4 4 4 5 4 3 3 4 3 3 3 3 3 2 2 3 2 1 3 3 5
Wind_Direction
203 167 156 143 148 150 148 155 143 137 134 131 126 125 123 126 127 130 128 130 137 133 123 116 111 104 99 93 85 78 73 68 58 64 83 72 83 78 72 64 50 48 45
152 160 156 139 149 153 145 142 140 138 139 136 132 130 130 128 128 125 128 136 141 135 125 117 109 104 98 88 78 74 69 66 62 59 80 68 69 79 69 61 52 48 45
150 152 162 144 158 139 131 142 144 143 141 141 142 138 132 130 128 129 130 139 137 128 119 117 113 102 85 76 74 71 66 59 57 62 68 70 74 72 68 64 59 55 50
151 158 170 151 144 129 136 142 146 146 145 144 143 135 130 129 125 123 120 114 106 107 104 100 89 81 77 75 72 68 65 60 61 64 76 69 67 68 63 56 55 49 47
153 168 161 155 145 138 138 144 150 150 149 144 142 132 127 118 115 108 103 100 100 96 87 83 83 77 78 75 72 69 70 70 63 68 71 73 70 60 60 53 50 47 42
144 162 153 157 144 143 150 147 148 150 146 143 143 133 130 115 111 110 95 90 88 85 83 80 83 86 78 73 72 71 73 69 65 66 67 65 67 61 51 46 44 43 42
148 152 163 164 149 150 154 154 149 144 143 147 144 127 120 104 101 99 99 96 96 100 99 97 89 81 79 76 75 75 74 68 68 64 61 63 59 54 52 48 47 46 45
157 159 173 169 156 156 160 156 153 153 155 145 119 109 105 108 106 108 111 107 107 106 104 97 89 83 78 76 76 73 69 65 66 64 58 57 49 49 48 50 52 52 52
170 169 178 175 168 162 166 159 156 153 141 115 104 100 102 122 108 112 106 112 110 106 103 99 93 87 82 78 75 72 70 63 66 61 59 55 49 54 55 56 56 55 55
203 196 184 179 171 165 165 152 149 142 125 114 102 92 94 93 92 89 95 110 109 103 99 96 90 85 81 80 78 73 68 66 65 60 56 52 58 64 63 64 64 65 58
225 227 205 179 174 158 158 152 126 124 124 117 112 109 94 90 94 105 98 102 105 102 98 96 92 86 82 76 75 75 70 63 65 58 55 39 67 69 71 69 64 60 59
264 266 182 230 166 141 157 173 147 133 133 125 118 114 98 104 109 101 83 79 80 93 95 94 90 85 79 76 74 72 73 74 66 61 54 41 67 71 67 71 69 68 61
288 274 179 95 69 93 23 319 239 151 127 115 124 125 110 112 102 102 97 92 92 79 88 88 87 80 84 86 78 78 80 74 72 63 36 41 66 74 69 70 63 71 71
293 258 186 176 152 157 179 185 189 147 167 136 139 122 131 127 123 117 114 111 101 94 102 96 93 93 86 82 82 78 74 78 76 68 51 33 48 68 66 71 70 64 67
312 291 221 216 198 176 174 163 163 175 217 153 144 132 136 142 145 136 128 118 116 114 105 103 103 95 88 84 79 84 85 80 74 69 63 39 51 57 62 63 68 65 63
328 307 260 256 204 154 183 205 162 145 155 147 133 156 147 147 156 145 141 121 118 118 106 99 114 104 89 91 84 86 87 82 75 69 66 57 52 52 58 63 56 57 59
319 308 287 250 222 184 176 169 145 151 142 150 138 139 156 148 149 143 131 121 120 109 100 104 99 99 96 88 93 88 87 80 78 75 70 62 52 44 52 47 53 55 57
326 312 304 243 200 182 167 148 147 125 122 141 143 138 130 118 124 119 134 127 133 109 115 104 118 94 92 98 102 91 87 83 79 76 73 70 64 56 52 51 51 51 50
338 328 299 250 206 176 125 109 114 130 122 135 147 133 131 121 115 105 103 113 133 125 112 141 100 94 115 106 99 92 83 80 77 80 77 74 70 64 58 50 43 42 40
350 346 349 273 175 116 103 99 86 99 99 119 150 144 131 122 127 102 102 110 152 111 127 147 111 86 120 116 106 86 79 77 78 79 84 82 73 67 62 56 47 41 39
2 360 357 352 5 131 106 113 109 120 108 113 123 135 127 142 122 141 136 155 156 145 149 126 110 116 116 136 119 96 72 68 72 74 88 91 81 70 67 60 52 44 36
355 356 356 347 339 119 110 113 110 125 109 106 126 116 118 128 136 178 129 227 172 134 137 140 120 133 139 189 138 122 151 149 85 62 83 94 88 81 68 56 57 47 38
3 357 353 352 350 24 104 104 77 81 89 99 116 117 129 126 127 94 156 132 158 142 148 159 162 178 152 193 265 118 144 189 144 73 70 93 102 82 74 60 60 49 40
357 356 5 10 21 20 24 28 53 149 138 124 125 115 120 126 131 124 142 107 120 182 150 193 187 182 157 169 203 200 42 108 163 166 145 83 98 95 75 63 60 54 40
360 1 7 19 24 16 20 26 32 51 58 84 108 128 134 127 131 137 135 140 158 210 183 184 181 195 180 155 163 159 175 116 110 143 159 155 114 126 93 61 56 61 45
3 6 10 19 24 23 22 19 17 27 103 123 132 139 148 149 163 170 160 165 186 175 183 191 197 201 183 185 183 191 191 179 184 164 130 138 178 159 157 57 50 53 54